Weather History for KMSP - June, 2013

Change the Weather History Date:

Friday, June 21, 2013

  Actual Average Record
Temperature  
Mean Temperature 73 °F 71 °F  
Max Temperature 82 °F 81 °F 95 °F (1910)
Min Temperature 64 °F 61 °F 39 °F (1992)
Degree Days  
Heating Degree Days 0 1  
Month to date heating degree days 42 40  
Since 1 June heating degree days 42 40  
Since 1 July heating degree days 7708 7576  
Cooling Degree Days 8 6  
Month to date cooling degree days 75 91  
Year to date cooling degree days 128 133  
Since 1 June cooling degree days 75 91  
Growing Degree Days 22 (Base 50)    
Moisture  
Dew Point 65 °F    
Average Humidity 72    
Maximum Humidity 93    
Minimum Humidity 51    
Precipitation  
Precipitation 2.50 in 0.15 in 2.95 in (2002)
Month to date precipitation 3.90 2.94  
Year to date precipitation 19.59 12.52  
Snow  
Snow 0.00 in 0.00 in 0.00 in ()
Month to date snowfall 0.0 0.0  
Since 1 June snowfall 0.0 0.0  
Since 1 July snowfall 67.7 54.4  
Snow Depth 0.00 in    
Sea Level Pressure  
Sea Level Pressure 29.89 in    
Wind  
Wind Speed 10 mph (NNE)    
Max Wind Speed 45 mph    
Max Gust Speed 61 mph    
Visibility 7 miles    
Events Fog , Rain , Hail , Thunderstorm    
T = Trace of Precipitation, MM = Missing Value Source: NWS Daily Summary

Daily Weather History Graph

Daily Weather History Graph

Search for Another Location

Airport or City:

Trip Planner

Search our weather history database for the weather conditions in past years. The results will help you decide how hot, cold, wet, or windy it might be!

Date:

Astronomy

Jun. 21, 2013 Rise Set
Actual Time 5:26 AM CDT 9:02 PM CDT
Civil Twilight 4:49 AM CDT 9:40 PM CDT
Nautical Twilight 3:59 AM CDT 10:29 PM CDT
Astronomical Twilight 2:54 AM CDT 11:35 PM CDT
Moon 7:11 PM CDT (6/21) 3:46 AM CDT (6/21)
Length of Visible Light 16h 50m
Length of Day
15h 36m
Waxing Gibbous, 95% of the Moon is Illuminated
Jun 21
Waxing Gibbous
Jun 23
Full
Jun 29
Last Quarter
Jul 8
New
Jul 15
First Quarter

Hourly Weather History & Observations

Time (CDT) Temp. Heat Index Dew Point Humidity Pressure Visibility Wind Dir Wind Speed Gust Speed Precip Events Conditions
12:53 AM 82.0 °F 83.1 °F 63.0 °F 52% 29.86 in 10.0 mi SSE 9.2 mph - N/A   Overcast
1:23 AM 80.6 °F 81.8 °F 62.6 °F 54% 29.84 in 10.0 mi SE 15.0 mph - N/A   Mostly Cloudy
1:53 AM 80.6 °F 82.3 °F 64.4 °F 58% 29.78 in 10.0 mi SE 12.7 mph - N/A   Overcast
2:09 AM 80.6 °F 82.3 °F 64.4 °F 58% 29.79 in 10.0 mi SSE 17.3 mph 20.7 mph N/A Thunderstorm Thunderstorm
2:29 AM 78.8 °F - 66.2 °F 65% 29.85 in 4.0 mi SW 24.2 mph 36.8 mph 0.03 in Rain , Thunderstorm Thunderstorms and Rain
2:32 AM 75.2 °F - 69.8 °F 83% 29.85 in 1.5 mi South 16.1 mph 36.8 mph 0.10 in Rain , Thunderstorm Heavy Thunderstorms and Rain
2:34 AM 73.4 °F - 69.8 °F 88% 29.83 in 0.8 mi SE 17.3 mph 36.8 mph 0.28 in Rain , Thunderstorm Heavy Thunderstorms and Rain
2:43 AM 71.6 °F - 69.8 °F 94% 29.77 in 1.0 mi SE 16.1 mph 25.3 mph 0.79 in Rain , Thunderstorm Heavy Thunderstorms and Rain
2:53 AM 73.0 °F - 69.1 °F 87% 29.75 in 7.0 mi SE 11.5 mph 21.9 mph 0.80 in Thunderstorm Thunderstorm
3:19 AM 73.4 °F - 69.8 °F 88% 29.77 in 10.0 mi SSE 12.7 mph - 0.02 in   Overcast
3:27 AM 73.4 °F - 69.8 °F 88% 29.75 in 10.0 mi SSE 12.7 mph - 0.02 in Thunderstorm Thunderstorm
3:44 AM 73.4 °F - 69.8 °F 88% 29.84 in 1.0 mi West 31.1 mph 42.6 mph 0.02 in Rain , Thunderstorm Light Thunderstorms and Rain
3:50 AM 68.0 °F - 66.2 °F 94% 29.84 in 0.8 mi West 35.7 mph 47.2 mph 0.20 in Rain , Hail , Thunderstorm Heavy Thunderstorms with Hail
3:53 AM 66.9 °F - 66.0 °F 97% 29.83 in 0.5 mi WNW 31.1 mph 47.2 mph 0.33 in Fog , Rain , Hail , Thunderstorm Heavy Thunderstorms with Hail
3:55 AM 66.2 °F - 66.2 °F 100% 29.86 in 0.5 mi WNW 21.9 mph 47.2 mph 0.08 in Fog , Rain , Thunderstorm Heavy Thunderstorms and Rain
4:10 AM 66.2 °F - 66.2 °F 100% 29.87 in 1.0 mi NNW 18.4 mph 38.0 mph 0.53 in Rain , Thunderstorm Heavy Thunderstorms and Rain
4:14 AM 66.2 °F - 66.2 °F 100% 29.89 in 2.0 mi NW 18.4 mph 31.1 mph 0.55 in Rain , Thunderstorm Heavy Thunderstorms and Rain
4:19 AM 66.2 °F - 64.4 °F 94% 29.90 in 3.0 mi NW 13.8 mph 27.6 mph 0.59 in Rain , Thunderstorm Thunderstorms and Rain
4:53 AM 68.0 °F - 64.0 °F 87% 29.87 in 9.0 mi North 16.1 mph 23.0 mph 0.66 in Rain , Thunderstorm Light Thunderstorms and Rain
5:26 AM 66.2 °F - 64.4 °F 94% 29.93 in 6.0 mi North 12.7 mph 23.0 mph 0.07 in Rain Rain
5:53 AM 66.0 °F - 64.0 °F 93% 29.87 in 8.0 mi North 17.3 mph - 0.12 in Rain Light Rain
6:24 AM 66.2 °F - 62.6 °F 88% 29.80 in 10.0 mi ENE 12.7 mph 21.9 mph 0.04 in   Scattered Clouds
6:38 AM 66.2 °F - 64.4 °F 94% 29.75 in 10.0 mi ENE 10.4 mph - 0.04 in   Overcast
6:53 AM 66.9 °F - 63.0 °F 87% 29.75 in 10.0 mi ENE 9.2 mph - 0.04 in   Overcast
7:06 AM 66.2 °F - 62.6 °F 88% 29.82 in 10.0 mi NNE 8.1 mph - N/A   Overcast
7:53 AM 66.9 °F - 64.0 °F 90% 29.84 in 10.0 mi WSW 10.4 mph - N/A   Overcast
8:53 AM 68.0 °F - 64.0 °F 87% 29.89 in 10.0 mi WSW 4.6 mph - N/A   Overcast
9:16 AM 68.0 °F - 64.4 °F 88% 29.95 in 10.0 mi WSW 8.1 mph - N/A   Overcast
9:53 AM 69.1 °F - 64.9 °F 87% 29.91 in 10.0 mi West 10.4 mph - N/A   Overcast
10:53 AM 72.0 °F - 64.0 °F 76% 29.93 in 10.0 mi West 6.9 mph - N/A   Overcast
11:53 AM 73.9 °F - 63.0 °F 68% 29.92 in 10.0 mi Calm Calm - N/A   Overcast
12:16 PM 75.2 °F - 62.6 °F 65% 29.93 in 10.0 mi NNE 6.9 mph - N/A   Mostly Cloudy
12:53 PM 75.0 °F - 63.0 °F 66% 29.92 in 10.0 mi East 5.8 mph - N/A   Mostly Cloudy
1:53 PM 75.9 °F - 64.9 °F 69% 29.94 in 10.0 mi SE 5.8 mph - N/A   Mostly Cloudy
2:53 PM 78.1 °F - 64.9 °F 64% 29.93 in 10.0 mi Variable 3.5 mph - N/A   Mostly Cloudy
3:53 PM 80.1 °F 82.1 °F 66.0 °F 62% 29.90 in 10.0 mi Calm Calm - N/A   Mostly Cloudy
4:53 PM 79.0 °F - 66.9 °F 66% 29.89 in 10.0 mi ENE 6.9 mph - N/A   Mostly Cloudy
5:53 PM 79.0 °F - 66.9 °F 66% 29.92 in 10.0 mi East 8.1 mph - N/A   Overcast
6:48 PM 78.8 °F - 66.2 °F 65% 29.97 in 10.0 mi ENE 8.1 mph - N/A   Overcast
6:53 PM 78.1 °F - 66.9 °F 68% 29.95 in 10.0 mi ENE 10.4 mph - N/A   Overcast
7:53 PM 75.0 °F - 69.1 °F 82% 30.05 in 5.0 mi NW 17.3 mph 43.7 mph 0.04 in Rain Light Rain
7:55 PM 73.4 °F - 66.2 °F 78% 30.05 in 6.0 mi NW 44.9 mph 55.2 mph 0.00 in Rain Light Rain
8:00 PM 66.2 °F - 62.6 °F 88% 30.04 in 1.8 mi West 31.1 mph 55.2 mph 0.06 in Rain Heavy Rain
8:04 PM 64.4 °F - 62.6 °F 94% 30.08 in 1.0 mi NW 39.1 mph 61.0 mph 0.11 in Rain Heavy Rain
8:07 PM 64.4 °F - 62.6 °F 94% 30.08 in 0.8 mi NW 34.5 mph 61.0 mph 0.14 in Rain , Thunderstorm Heavy Thunderstorms and Rain
8:23 PM 64.4 °F - 62.6 °F 94% 30.00 in 1.5 mi North 27.6 mph 42.6 mph 0.50 in Rain , Thunderstorm Thunderstorms and Rain
8:27 PM 64.4 °F - 62.6 °F 94% 29.98 in 3.0 mi North 27.6 mph 42.6 mph 0.50 in Rain , Thunderstorm Light Thunderstorms and Rain
8:39 PM 66.2 °F - 62.6 °F 88% 29.96 in 6.0 mi NNE 15.0 mph 28.8 mph 0.51 in Rain Light Rain
8:53 PM 70.0 °F - 66.0 °F 87% 29.97 in 10.0 mi NNE 11.5 mph 20.7 mph 0.51 in   Overcast
9:53 PM 71.1 °F - 66.9 °F 87% 29.96 in 10.0 mi East 11.5 mph - N/A   Overcast
10:53 PM 71.1 °F - 66.9 °F 87% 29.91 in 10.0 mi East 10.4 mph - N/A   Overcast
11:53 PM 69.1 °F - 66.0 °F 90% 29.90 in 10.0 mi SE 9.2 mph - N/A   Overcast